LogoCoinalyze
    Ad-Free Version Anasayfa Piyasalar Fonlama Oranları
    Vadeli işlem verileri
    • Toplulaştırılmış veriler (Madeni Paralar)
    • Bireysel grafikler
    • Küresel grafikler
    Alarmlar
    TA
    Bitcoin Ethereum BNB Ripple Tron ZCash Dogecoin Monero UNUS SED LEO Chainlink Cardano Stellar Lumens Bitcoin Cash Litecoin Hedera Cronos Polkadot Ethereum Classic Algorand Quant Cosmos VeChain Dash Bitcoin SV BitTorrent Terra Decred Tezos Iota The Graph THETA Decentraland NEO Chiliz MultiversX Golem Basic Attention Token Horizen Qtum 0x DigiByte Beam FTX Token RIF Token Holo FUNToken Zilliqa Ontology aelf Nano Enjin Coin Ravencoin Siacoin Mask Network Verge Status WINk Waves IoTeX iExec RLC Power Ledger Steem Kyber Network Crystal Lisk Ark Ardor IOST WOO Network WAX Icon Storj Wanchain Loopring Bitcoin Diamond AdEx Bitcoin Gold Augur OmiseGO NEM MonaCoin BitShares Ren Komodo V Systems Nuls Mithril SOLVE Maker EOS Aion Nebulas HedgeTrade Bread Fetch.ai TomoChain Polygon Fantom Waltonchain GXChain Bytom Metaverse ETP MaidSafeCoin QASH
    Sırala:
    Daha
    • API
    • Mum Desenleri
    • Bağış
    • İletişim
    • Site Haritası
    • Gizlilik Politikası
    • Sorumluluk Reddi Beyanı
    • Theme:
    Türkçe
    • English
    • Français
    • Русский
    • Deutsch
    • Nederlands
    • Português (BR)
    • Español
    • 한국어
    • 简体中文
    • 日本語
     
    Giriş / Kaydol
    Markets/ Pepe/ PEPE ve USD/ PEPEUSD Coinbase
    İşlemler
    WL
    Sohbet
    İstatistikler
    Haberler
    ⦷
    AAA
    0.00000344 90949275.00000000 07:55:11
    0.00000344 3330286.00000000 07:54:11
    0.00000344 666351.00000000 07:53:08
    0.00000344 346351.00000000 07:52:46
    0.00000344 320000.00000000 07:52:46
    0.00000344 666351.00000000 07:52:36
    0.00000344 78377193.00000000 07:52:33
    0.00000344 69267735.00000000 07:52:33
    0.00000344 2681053.00000000 07:49:35
    0.00000345 113836453.00000000 07:48:01
    0.00000345 5797101.00000000 07:48:01
    0.00000345 416000000.00000000 07:48:01
    0.00000345 47198940.00000000 07:48:01
    0.00000345 36442560.00000000 07:47:27
    0.00000345 15216816.00000000 07:47:26
    0.00000345 31983324.00000000 07:47:25
    0.00000345 154687500.00000000 07:47:25
    0.00000345 47198940.00000000 07:47:24
    0.00000345 5830962.00000000 07:47:22
    0.00000345 41367978.00000000 07:47:21
    0.00000345 146189190.00000000 07:47:20
    0.00000345 30700000.00000000 07:47:20
    0.00000345 4455605.00000000 07:43:25
    0.00000345 416000000.00000000 07:43:25
    0.00000345 5797101.00000000 07:43:25
    0.00000345 286957.00000000 07:38:13
    0.00000345 30700000.00000000 07:36:05
    0.00000345 3561180.00000000 07:35:34
    0.00000345 174010502.00000000 07:34:55
    0.00000345 30700000.00000000 07:34:27
    0.00000345 435414.00000000 07:34:14
    0.00000345 330344459.00000000 07:33:12
    0.00000345 416000000.00000000 07:33:12
    0.00000345 154687500.00000000 07:33:12
    0.00000345 2681053.00000000 07:30:24
    0.00000345 71739.00000000 07:29:35
    0.00000345 300359253.00000000 07:28:44
    0.00000345 30700000.00000000 07:28:44
    0.00000345 30700000.00000000 07:28:22
    0.00000345 30700000.00000000 07:28:17
    0.00000345 30519404.00000000 07:27:56
    0.00000345 47758308.00000000 07:27:56
    0.00000345 30700000.00000000 07:27:56
    0.00000345 307022288.00000000 07:27:56
    0.00000345 47198940.00000000 07:27:29
    0.00000345 289130434.00000000 07:27:29
    0.00000345 276322288.00000000 07:27:29
    0.00000345 405928043.00000000 07:27:29
    0.00000345 9506952.00000000 07:27:20
    0.00000345 565005.00000000 07:26:44
    0.00000345 6.00000000 07:26:44
    0.00000346 3863971.00000000 07:21:36
    0.00000346 1251888.00000000 07:16:17
    0.00000346 100176512.00000000 07:15:32
    0.00000346 207279624.00000000 07:15:32
    0.00000346 101361046.00000000 07:15:32
    0.00000346 61262458.00000000 07:15:32
    0.00000346 385300000.00000000 07:15:32
    0.00000346 30700000.00000000 07:15:32
    0.00000346 720981829.00000000 07:14:51
    0.00000346 288600288.00000000 07:14:51
    0.00000346 282592131.00000000 07:14:51
    0.00000346 30700000.00000000 07:14:51
    0.00000346 416000000.00000000 07:14:51
    0.00000346 296760356.00000000 07:14:51
    0.00000346 47198940.00000000 07:14:51
    0.00000346 102232730.00000000 07:14:51
    0.00000347 333487.00000000 07:14:27
    0.00000346 52454770.00000000 07:14:24
    0.00000347 99037089.00000000 07:14:06
    0.00000346 154687500.00000000 07:11:29
    0.00000346 15342637.00000000 07:11:29
    0.00000346 47198940.00000000 07:11:29
    0.00000346 20000000.00000000 07:11:10
    0.00000346 50000000.00000000 07:11:09
    0.00000346 13000000.00000000 07:11:06
    0.00000346 15000000.00000000 07:11:06
    0.00000346 20000000.00000000 07:11:06
    0.00000346 83438758.00000000 07:11:06
    0.00000346 154687500.00000000 07:11:06
    0.00000346 47198940.00000000 07:11:06
    0.00000346 16674802.00000000 07:11:06
    0.00000346 184648551.00000000 07:04:47
    0.00000346 11531798.00000000 07:04:47
    0.00000346 6.00000000 07:04:47
    0.00000346 47198940.00000000 07:04:47
    0.00000346 123987500.00000000 07:04:47
    0.00000346 30700000.00000000 07:03:41
    0.00000345 24399314.00000000 06:57:37
    0.00000345 185856259.00000000 06:56:34
    0.00000345 84980307.00000000 06:56:34
    0.00000344 1698650.00000000 06:56:15
    0.00000345 143592544.00000000 06:54:48
    0.00000345 54684735.00000000 06:54:28
    0.00000345 47198940.00000000 06:54:28
    0.00000345 154687500.00000000 06:54:28
    0.00000345 30613913.00000000 06:54:28
    0.00000344 81040062.00000000 06:54:14
    0.00000344 47198940.00000000 06:54:14
    0.00000345 86087.00000000 06:53:23
    Çıkış
    AAA
    Yardım
    🙂 🤣 😎 🤗 😛 😉 😜 🤑 🤔 😑 😴 😕 🙃 😲 😇 🙁 😢 😬 😟 😠 🕺 🏃 💪 ✌ 👌 👍 👎 👏 👋 🤝 🍺 🍻 🐋 🐟 🦈 🗽 🚄 ✈ 🛑 🚀 🏦 🌚 ⭐ 🌞 ⚡ 🏆 💰 💲 🔨 ❓ ❗ 💯 🔶 🏁
    ☺
    Giriş veya Kaydol ve sohbet
    24 Saat
    Değişim
    -2.55%
    Hacim
    625,706,639,346
    Yüksek
    0.00000355
    Düşük
    0.00000343
    7 Gün
    Değişim
    -9.71%
    Hacim
    3,787,223,252,544
    Yüksek
    0.00000401
    Düşük
    0.00000337
    30 Gün
    Değişim
    +18.21%
    Hacim
    19,953,785,801,264
    Yüksek
    0.00000456
    Düşük
    0.00000253
    Pepe price rallies 25% as whale demand and futures interest surge
    Key takeaways Pepe has gained 25% this week, including a combined 22% advance over the previous two days. Seven whale transactions worth more than $1 million each occurred Thursday, the highest...
    coinjournal.net
    Aug 21, 2026 08:41
    PEPE Supply on Exchanges Just Took a Massive Hit – What’s Next?
    A drop in PEPE exchange balances has added to bullish expectations despite muted trader interest.
    cryptopotato.com
    Aug 6, 2026 20:02
    PEPE Exchange Outflows Hit Nearly 2-Year High as Whales Accumulate
    Pepe (PEPE) recorded its largest single-day exchange outflow since November 2024, with 4.54 trillion tokens leaving trading platforms, signaling that holders are moving supply away from immediate...
    beincrypto.com
    Aug 6, 2026 04:57
    Meme Coin Based on White House Shooter Conspiracy Rallies 320%
    $HENRY surged 300% after a 2023 Pepe tweet appeared to name the White House shooter, fueling a viral time-travel meme. The post Meme Coin Based on White House Shooter Conspiracy Rallies 320%...
    beincrypto.com
    Apr 27, 2026 16:11
    PEPE surges 4% as market sentiment improves, eyes Key resistance breakout
    Key takeaways Pepe extends gains on Wednesday, stretching its rally from the 50-day EMA. Derivatives data show heightened retail activity as risk-on sentiment returns to the market. Pepe (PEPE) is...
    coinjournal.net
    Apr 22, 2026 11:44
    Why The PEPE Price Could Stage A 55X Rally To Reach New $0.0001 ATH
    The PEPE price has now started to edge back into bullish conversations after the recent inflows into the crypto market. The last time PEPE’s weekly chart printed the kind of structure now...
    newsbtc.com
    Apr 21, 2026 15:30
    Pepe (PEPE) surges 9%, drawing interest from whales
    Key takeaways PEPE is up 9% in the last 24 hours, making it one of the best performers among the top 50 cryptocurrencies by market cap. The rally comes amid renewed interest from whales and retail...
    coinjournal.net
    Apr 16, 2026 07:40
    Murad Says SPX6900 (SPX) Is Primed for a Rally — Is He Right This Time?
    Crypto influencer Murad Mahmudov claims SPX6900 (SPX) is stabilizing at the same market cap level where Dogecoin (DOGE) and Pepe (PEPE) consolidated before their explosive rallies. The...
    beincrypto.com
    Apr 5, 2026 21:36
    The Shiba Inu Of This Cycle: Analyst Shares Why It Is Better To Buy PEPE Now
    In the bull market cycle of 2021-2022, the Shiba Inu meme coin made waves in a way that changed the face of meme coins forever. This came after Dogecoin’s initial 36,000% rally, and Shiba Inu...
    newsbtc.com
    Apr 4, 2026 07:30
    PEPE Explodes by 18% Amid Altcoin Rally, BTC Tapped $74K: Market Watch
    The frog-themed meme coin is today's biggest gainer, followed by TAO, DOT, and BONK.
    cryptopotato.com
    Mar 16, 2026 10:56
    Should PEPE traders brace for volatility as short squeeze potential builds?
    The memecoin market has seen its collective market capitalization drop by 48% over the past year, and 6.9% over the past month, according to CoinMarketCap. According to Glassnode, the memecoin...
    ambcrypto.com
    Mar 7, 2026 18:00
    Komutu sohbete yazmanız yeterlidir. Takma ad1'i gerçek takma adla değiştirin.
    • /ignore nick1 Sohbet kullanıcısını engelle
    • /unignore nick1 Sohbet kullanıcısının engelini kaldır.
    • /ignorelist Engellediğiniz sohbet kullanıcılarını gösterin